Dewpoint
10 8 8 5 4 3 3 1 -1 4 4 4 4 3 1 -0 -0 -3 -4 -4 -5 -7 -8 -8 -8 -7 -7 -7 -7 -7 -9 -9 -13 -17 -17 -20 -26 -30
10 9 7 4 4 3 2 2 2 -1 3 3 3 2 1 1 -2 -5 -8 -7 -6 -7 -8 -9 -9 -9 -8 -7 -7 -7 -8 -9 -12 -15 -16 -21 -26 -29
10 10 7 5 3 2 2 2 2 1 -1 1 2 1 0 -2 -3 -4 -6 -9 -9 -11 -11 -9 -9 -9 -9 -8 -7 -7 -8 -9 -12 -14 -15 -21 -26 -29
10 10 8 5 3 2 1 2 2 1 1 -1 -1 -0 -0 -4 -5 -6 -6 -7 -8 -9 -12 -13 -11 -10 -9 -9 -8 -7 -7 -8 -9 -14 -15 -21 -25 -29
10 10 8 5 3 2 1 1 2 3 2 0 -1 -1 -1 -1 -2 -4 -6 -7 -7 -6 -10 -13 -15 -12 -10 -10 -9 -8 -7 -9 -10 -14 -15 -21 -25 -29
9 10 8 5 4 3 1 -1 1 3 3 2 0 -2 -1 -1 -1 -3 -6 -8 -8 -8 -10 -12 -15 -15 -12 -10 -10 -9 -7 -9 -10 -13 -16 -20 -26 -29
10 10 8 5 4 5 1 -2 -2 0 2 2 0 -4 -3 -1 -4 -4 -4 -8 -10 -9 -10 -12 -14 -14 -13 -12 -11 -10 -8 -9 -10 -14 -18 -21 -26 -29
10 9 8 5 5 5 2 -1 -5 -8 -2 -1 -0 -4 -10 -7 -6 -7 -7 -7 -8 -10 -11 -12 -13 -13 -15 -13 -12 -11 -8 -8 -11 -15 -18 -21 -26 -29
9 10 8 5 5 5 3 1 -2 -8 -8 -12 -8 -10 -14 -13 -11 -9 -11 -12 -13 -11 -12 -12 -12 -12 -14 -14 -12 -11 -8 -9 -10 -15 -16 -22 -27 -30
8 10 8 5 5 4 4 2 -1 -6 -9 -9 -11 -13 -14 -13 -13 -12 -13 -13 -11 -11 -11 -11 -11 -12 -13 -14 -13 -11 -8 -6 -3 -14 -16 -23 -27 -30
7 8 8 5 6 5 4 4 -0 -5 -9 -10 -12 -12 -12 -12 -11 -12 -12 -12 -11 -11 -11 -11 -11 -11 -12 -14 -12 -11 -8 -2 -8 -12 -18 -24 -27 -31
7 8 8 6 6 5 5 5 3 -1 -10 -12 -12 -12 -12 -12 -11 -11 -11 -11 -11 -11 -10 -10 -10 -11 -13 -13 -11 -9 -7 -3 -4 -13 -19 -25 -28 -31
7 8 8 7 6 6 4 5 5 4 -3 -9 -12 -12 -12 -12 -11 -11 -10 -9 -9 -10 -10 -10 -10 -11 -12 -6 -6 -6 -1 -2 -5 -14 -21 -26 -29 -31
7 7 8 8 6 7 4 4 5 4 1 -6 -12 -12 -12 -12 -11 -10 -9 -9 -8 -8 -9 -9 -10 -11 -11 -8 -7 -3 -2 -3 -10 -17 -24 -27 -30 -31
6 6 7 8 8 7 5 4 5 5 2 -6 -12 -12 -12 -11 -10 -9 -9 -9 -8 -8 -9 -9 -10 -11 -6 -7 -8 -2 -2 -5 -14 -20 -25 -28 -31 -31
7 7 7 7 8 8 5 4 5 5 4 -2 -11 -12 -9 -8 -9 -9 -9 -10 -9 -9 -9 -9 -9 -8 -5 -8 -6 -2 -3 -13 -19 -24 -26 -30 -32 -32
7 7 7 7 6 6 5 5 5 5 3 -2 -9 -9 -6 -5 -7 -9 -9 -10 -9 -9 -9 -9 -10 -6 -7 -7 -5 -2 -6 -15 -20 -25 -28 -31 -32 -31
7 7 7 7 6 7 6 5 5 5 4 1 -7 -7 -5 -3 -5 -8 -9 -10 -9 -9 -8 -9 -8 -5 -4 -5 -2 -3 -11 -17 -23 -26 -29 -32 -31 -31
7 7 7 7 7 7 7 6 5 5 6 2 -2 -5 -4 -3 -4 -8 -9 -9 -8 -5 -5 -9 -6 -4 -3 -2 -3 -4 -7 -16 -24 -27 -31 -32 -31 -30
7 7 6 6 7 7 7 7 6 5 5 3 -0 -2 -3 -2 -3 -7 -9 -9 -5 -1 -2 -7 -6 -2 -2 -3 -3 -5 -10 -21 -26 -30 -31 -31 -31 -30
6 6 7 7 7 7 7 7 6 6 6 5 2 0 -2 -1 -3 -6 -9 -8 -0 -1 -0 -5 -4 -2 -3 -4 -4 -6 -13 -25 -28 -30 -31 -31 -31 -29
6 6 6 6 6 6 7 7 7 6 6 6 5 3 0 -1 -2 -6 -8 -2 -1 -0 -1 -4 -2 -3 -3 -4 -5 -9 -20 -26 -30 -31 -31 -30 -29 -28
5 6 6 6 6 6 6 6 6 6 6 7 6 4 2 0 -1 -5 -6 -0 -0 -0 -2 -3 -3 -4 -4 -5 -6 -13 -22 -28 -30 -30 -30 -28 -27 -27
Wind_Speed
57 54 48 46 42 45 48 49 48 37 43 38 36 33 29 26 24 22 21 19 17 14 10 7 6 5 4 4 6 8 11 12 12 12 13 13 14 15
60 55 49 45 40 43 44 46 47 39 44 44 44 40 33 29 26 23 22 20 18 14 12 10 9 8 7 6 7 8 10 12 12 12 12 12 14 15
60 54 53 44 40 39 42 43 48 41 33 42 43 37 35 33 31 27 24 23 21 18 16 14 12 11 9 9 9 8 10 12 13 12 12 12 14 15
61 54 53 46 41 38 38 41 44 43 37 32 40 40 37 35 32 29 28 25 23 21 19 17 15 13 12 11 10 9 11 13 14 13 13 13 14 16
61 55 53 48 43 39 37 36 38 41 39 32 32 38 36 36 35 32 30 27 25 23 21 20 18 15 15 13 12 11 12 13 13 13 13 13 14 16
55 55 53 48 43 38 36 35 37 40 39 35 29 33 40 36 38 36 35 31 28 26 24 21 19 17 17 15 13 12 12 13 14 14 14 14 14 16
57 56 52 48 40 35 35 36 35 36 39 37 33 32 38 43 42 40 37 32 29 28 25 23 22 19 18 16 14 13 13 14 15 14 13 14 15 17
61 56 52 49 42 36 33 34 34 33 39 39 38 36 35 39 41 40 39 36 34 32 28 25 23 20 19 17 15 14 13 14 15 14 13 15 15 17
52 51 53 51 45 38 33 32 32 28 29 29 34 33 31 30 34 37 37 36 34 27 25 26 25 22 20 18 17 15 14 13 15 14 15 15 15 16
45 52 54 52 47 42 37 34 34 32 30 29 24 20 22 24 25 27 31 33 32 29 25 21 23 22 21 19 18 16 14 13 16 15 17 15 15 16
40 39 54 53 48 42 37 35 35 34 30 28 24 21 20 19 20 27 31 31 33 32 29 25 20 20 22 21 19 17 14 16 13 16 16 15 15 16
41 39 50 52 50 46 41 36 36 35 33 29 29 26 25 24 21 20 24 27 31 30 29 28 22 19 20 21 19 17 15 15 15 17 15 15 15 17
41 43 47 51 50 47 43 38 33 31 35 32 30 31 30 28 26 25 23 24 25 27 15 26 25 22 20 9 15 15 16 14 15 16 15 14 15 17
50 48 47 49 49 48 45 43 37 34 35 36 36 36 32 29 25 24 23 23 23 25 22 16 23 22 21 18 15 14 14 14 15 14 14 13 15 17
50 44 42 43 47 49 46 44 41 37 37 39 39 36 32 28 26 26 26 25 25 26 24 19 19 18 16 19 18 16 14 12 14 14 13 13 14 16
43 39 37 39 44 48 47 46 42 39 37 40 40 38 33 30 29 28 28 27 27 27 27 23 19 21 19 19 18 16 11 10 10 11 11 13 15 16
49 43 41 43 48 49 49 47 45 42 42 42 42 40 36 34 32 31 29 28 29 30 29 27 23 22 20 19 18 14 10 13 13 12 11 12 14 16
49 45 42 44 47 48 49 50 48 46 45 44 45 43 39 37 35 34 32 31 30 27 25 26 25 22 20 18 16 12 11 13 12 11 11 12 13 16
47 48 48 46 45 44 46 53 53 49 47 47 47 45 42 39 37 37 36 33 30 25 23 25 24 23 20 17 13 11 11 12 11 11 11 12 14 16
52 50 48 45 44 45 48 52 52 52 52 50 50 48 45 43 42 41 39 37 34 26 26 28 26 23 17 15 13 9 8 11 10 10 11 11 14 15
55 51 47 45 44 43 46 49 51 53 54 52 52 51 50 47 45 43 41 37 32 28 29 29 25 19 19 18 12 7 8 10 10 9 11 13 13 14
53 53 51 47 45 44 46 46 50 51 53 54 53 53 52 50 48 46 42 41 33 32 29 28 24 22 20 14 11 7 9 9 9 9 11 13 14 14
52 53 53 49 47 45 45 45 47 49 52 52 53 54 54 53 47 43 43 37 37 28 30 28 25 21 18 15 11 9 10 9 8 9 10 13 14 15
Wind_Direction
200 198 200 205 203 205 203 203 196 179 195 200 201 206 198 196 202 203 205 204 200 205 208 211 223 237 269 319 340 347 355 352 353 355 354 354 352 355
203 200 202 203 206 206 208 207 204 206 193 202 204 202 198 203 206 206 211 212 210 213 218 225 233 242 263 290 309 332 340 345 349 347 346 346 347 351
203 203 204 205 208 208 209 209 208 211 212 206 208 207 203 203 206 208 213 216 218 219 225 231 237 243 255 271 289 314 328 337 342 339 337 339 343 345
206 203 205 205 208 208 209 210 211 216 217 214 208 206 207 206 211 213 217 220 223 226 229 235 240 244 251 262 278 300 315 328 332 331 331 335 339 341
207 208 205 205 207 208 208 209 212 216 218 220 213 208 207 207 210 214 220 222 224 227 232 235 238 242 249 256 270 285 305 316 325 325 323 330 334 337
207 210 205 206 207 206 206 206 211 213 216 216 219 214 211 208 213 216 215 218 223 227 231 235 238 240 245 251 261 278 294 307 315 317 320 325 330 333
205 208 207 207 208 209 205 203 208 210 212 211 210 210 212 212 213 214 220 223 223 227 231 235 239 240 243 248 255 269 284 299 308 311 316 321 325 331
202 205 206 207 207 207 208 211 210 209 207 207 209 213 216 216 216 218 219 216 219 226 229 234 236 237 240 246 252 265 279 293 302 306 312 316 321 326
207 208 205 207 206 204 206 210 213 220 224 217 209 212 219 222 220 220 222 226 229 227 231 234 235 237 239 243 253 260 273 287 302 302 309 308 313 322
213 214 205 205 204 202 203 206 210 215 217 217 222 231 233 234 231 233 227 225 227 231 233 235 237 238 238 242 248 256 267 279 296 295 298 301 309 318
208 214 208 206 202 201 202 205 208 212 213 213 217 222 229 236 237 231 228 225 226 230 229 234 237 233 232 237 244 253 259 290 288 290 290 297 303 316
209 213 210 206 207 201 203 204 207 209 209 209 212 212 213 217 220 227 230 231 227 231 231 229 232 229 227 235 237 248 259 276 284 284 286 292 302 317
210 210 206 208 209 206 204 210 213 211 209 211 213 213 215 217 217 217 218 225 231 232 239 226 229 222 215 220 231 236 278 274 281 280 284 291 306 316
206 209 205 207 207 209 208 212 213 212 212 211 213 215 217 220 219 217 217 219 217 226 225 227 227 224 224 233 234 266 281 271 275 277 283 293 310 319
210 206 207 206 211 210 212 215 214 212 212 214 216 216 218 221 220 217 215 215 213 214 217 226 223 218 224 238 245 286 270 274 271 274 278 296 307 314
219 215 207 209 212 209 209 215 217 214 215 218 218 217 217 220 221 222 220 216 213 212 213 215 214 222 235 238 259 284 267 255 273 269 280 293 306 313
216 212 210 212 209 208 207 211 213 214 216 219 220 218 219 222 222 221 219 217 216 216 213 213 214 221 229 244 265 260 255 261 265 270 281 293 304 311
211 210 210 212 213 212 208 210 213 213 216 220 220 221 223 223 220 218 216 216 216 214 217 219 219 219 230 242 255 239 247 257 261 266 279 293 306 311
217 216 213 213 211 212 215 212 213 213 218 218 221 221 222 223 221 217 214 211 206 204 220 222 222 225 232 244 235 230 247 252 256 268 281 297 308 312
220 219 216 215 215 217 213 213 215 217 219 218 220 222 222 223 220 217 214 210 196 198 221 223 222 233 246 230 223 228 234 248 253 268 284 299 306 313
219 223 224 222 223 220 215 216 218 219 221 221 222 223 223 222 221 218 213 204 197 224 225 223 226 231 225 225 218 219 229 242 255 272 288 299 309 319
224 226 227 225 226 226 220 218 221 221 224 224 226 226 224 223 220 216 206 196 207 236 223 218 225 223 221 217 206 202 229 243 257 276 294 308 319 323
226 228 228 227 228 227 226 223 223 224 226 227 229 227 225 222 217 210 203 201 227 232 216 215 215 214 209 204 193 204 232 242 260 283 298 310 322 329
Height
1506 1514 1522 1531 1536 1542 1546 1550 1551 1564 1573 1579 1583 1586 1591 1595 1599 1602 1605 1607 1610 1612 1613 1615 1616 1617 1617 1617 1616 1614 1613 1611 1609 1607 1605 1603 1599 1597
1500 1510 1518 1527 1532 1538 1543 1549 1552 1554 1562 1570 1574 1578 1585 1591 1595 1599 1602 1605 1607 1609 1611 1613 1614 1615 1616 1615 1614 1613 1612 1610 1608 1606 1604 1601 1598 1596
1494 1504 1513 1521 1528 1533 1539 1545 1548 1554 1558 1564 1570 1577 1582 1587 1591 1595 1598 1601 1604 1606 1608 1610 1611 1612 1613 1612 1612 1611 1610 1609 1607 1605 1602 1599 1598 1596
1488 1496 1506 1517 1524 1528 1534 1539 1545 1549 1556 1561 1565 1571 1577 1583 1587 1591 1593 1597 1600 1602 1604 1606 1608 1610 1610 1610 1610 1610 1609 1607 1605 1603 1601 1598 1596 1594
1483 1491 1500 1510 1518 1524 1530 1535 1540 1546 1552 1559 1562 1566 1572 1578 1582 1586 1590 1594 1596 1598 1600 1602 1604 1606 1607 1607 1607 1607 1607 1605 1603 1601 1598 1596 1594 1593
1478 1487 1496 1504 1511 1518 1524 1529 1534 1541 1548 1554 1560 1563 1568 1573 1577 1580 1583 1587 1591 1593 1596 1598 1601 1602 1603 1604 1604 1604 1604 1603 1601 1599 1596 1595 1593 1590
1471 1480 1491 1500 1507 1513 1518 1523 1530 1536 1542 1548 1554 1557 1560 1564 1568 1573 1579 1583 1586 1588 1591 1593 1596 1597 1599 1600 1601 1601 1601 1600 1599 1597 1595 1593 1591 1588
1463 1474 1486 1497 1503 1509 1515 1520 1526 1529 1534 1540 1545 1549 1553 1557 1564 1568 1573 1577 1579 1580 1585 1589 1591 1593 1595 1597 1597 1597 1598 1597 1596 1595 1593 1591 1589 1587
1458 1470 1479 1491 1499 1505 1511 1518 1524 1529 1535 1537 1540 1545 1549 1553 1558 1561 1566 1571 1573 1577 1580 1583 1586 1589 1591 1592 1593 1594 1594 1595 1594 1591 1589 1588 1586 1584
1456 1464 1474 1483 1492 1499 1506 1512 1518 1525 1530 1536 1542 1546 1550 1553 1557 1560 1562 1566 1571 1574 1577 1579 1582 1584 1587 1588 1588 1589 1591 1590 1590 1589 1587 1586 1584 1581
1450 1459 1467 1477 1486 1494 1501 1507 1514 1520 1527 1533 1538 1542 1547 1550 1554 1557 1558 1563 1565 1568 1572 1576 1577 1579 1582 1584 1585 1586 1587 1587 1586 1585 1584 1583 1581 1580
1445 1451 1462 1471 1481 1488 1495 1501 1508 1514 1522 1528 1532 1536 1540 1544 1548 1551 1555 1557 1561 1564 1567 1571 1573 1575 1577 1579 1580 1582 1583 1582 1582 1582 1581 1580 1579 1578
1439 1443 1454 1464 1475 1483 1490 1497 1504 1511 1518 1524 1528 1532 1535 1538 1542 1545 1549 1554 1556 1560 1563 1565 1567 1570 1572 1574 1576 1577 1578 1578 1578 1578 1578 1578 1577 1575
1432 1440 1449 1459 1469 1477 1484 1494 1500 1506 1512 1518 1522 1525 1530 1534 1538 1541 1545 1548 1552 1555 1560 1561 1563 1566 1569 1571 1573 1574 1574 1574 1575 1576 1575 1574 1573 1571
1430 1433 1443 1454 1464 1472 1480 1487 1494 1500 1507 1511 1516 1521 1526 1530 1534 1536 1538 1542 1546 1550 1554 1558 1560 1563 1564 1566 1569 1570 1570 1572 1572 1572 1572 1571 1569 1566
1427 1432 1439 1449 1457 1464 1472 1480 1488 1494 1499 1504 1510 1515 1520 1524 1528 1532 1533 1536 1541 1545 1549 1553 1556 1560 1560 1562 1565 1566 1568 1569 1569 1569 1569 1568 1566 1564
1421 1427 1433 1440 1445 1452 1463 1472 1480 1487 1493 1498 1504 1509 1512 1516 1520 1526 1528 1531 1535 1539 1544 1548 1551 1554 1556 1559 1561 1562 1563 1565 1565 1565 1565 1565 1563 1560
1415 1420 1426 1433 1439 1447 1454 1463 1472 1479 1485 1491 1498 1502 1505 1509 1513 1519 1523 1526 1531 1536 1541 1544 1547 1550 1552 1555 1556 1557 1559 1561 1562 1562 1562 1561 1559 1557
1409 1414 1419 1425 1433 1439 1447 1455 1463 1470 1478 1483 1489 1494 1497 1503 1507 1511 1516 1521 1526 1532 1537 1540 1543 1545 1547 1550 1552 1554 1557 1557 1559 1560 1560 1559 1558 1556
1402 1407 1412 1420 1427 1432 1439 1447 1455 1462 1469 1474 1480 1484 1489 1493 1498 1502 1508 1513 1519 1523 1531 1535 1538 1540 1544 1545 1547 1549 1552 1554 1556 1556 1556 1556 1555 1552
1394 1399 1406 1414 1421 1427 1434 1439 1446 1453 1460 1466 1470 1475 1480 1484 1490 1496 1501 1508 1515 1519 1525 1530 1535 1537 1538 1541 1543 1546 1550 1552 1552 1553 1553 1553 1551 1549
1387 1393 1400 1408 1415 1421 1428 1432 1438 1444 1451 1456 1461 1466 1471 1476 1480 1488 1494 1501 1507 1513 1519 1526 1529 1531 1534 1537 1540 1544 1547 1548 1550 1549 1549 1549 1547 1545
1382 1387 1395 1402 1408 1414 1420 1424 1430 1435 1442 1447 1451 1456 1461 1465 1472 1484 1491 1496 1500 1508 1512 1519 1522 1526 1530 1532 1536 1540 1544 1544 1545 1545 1545 1544 1542 1539